CW5689 Weather Reports


Display with metric or nautical units.
time (UTC)temp
F
wind
direction
speed
MPH
gust
MPH
rain 1hr
in
rain 24hr
in
rain mn
in
humidity
%
barometer
mb
20260510214026 59 20 4.0 13.0 0.00 0.00 0.00 39 1019.8
20260510214011 60 20 2.0 1.0 0.00 0.00 0.00 38 1019.6
20260510213519 59 340 4.0 13.0 0.00 0.00 0.00 29 1019.7
20260510213511 60 336 3.0 1.0 0.00 0.00 0.00 29 1019.5
20260510213032 59 359 4.0 16.0 0.00 0.00 0.00 37 1019.8
20260510213011 60 11 4.0 1.0 0.00 0.00 0.00 37 1019.6
20260510212515 59 12 3.0 16.0 0.00 0.00 0.00 33 1019.9
20260510212511 60 3 7.0 2.0 0.00 0.00 0.00 32 1019.5
20260510212021 59 39 7.0 16.0 0.00 0.00 0.00 32 1019.7
20260510212011 60 42 5.0 2.0 0.00 0.00 0.00 32 1019.4
20260510211534 60 12 3.0 13.0 0.00 0.00 0.00 34 1019.7
20260510211511 60 18 5.0 1.0 0.00 0.00 0.00 34 1019.3
20260510211018 59 290 6.0 14.0 0.00 0.00 0.00 32 1019.6
20260510210516 59 257 4.0 14.0 0.00 0.00 0.00 38 1019.7
20260510210037 59 18 4.0 14.0 0.00 0.00 0.00 36 1019.6
20260510210011 60 20 2.0 1.0 0.00 0.00 0.00 35 1019.3
20260510205519 59 318 3.0 15.0 0.00 0.01 0.00 34 1019.7
20260510205511 60 278 5.0 1.0 0.00 0.01 0.00 34 1019.3
20260510205018 59 262 3.0 15.0 0.00 0.01 0.00 35 1019.7
20260510205011 60 251 3.0 2.0 0.00 0.01 0.00 35 1019.4
20260510204534 59 290 8.0 15.0 0.00 0.01 0.00 33 1019.7
20260510204511 60 345 10.0 2.0 0.00 0.01 0.00 32 1019.3
20260510204018 59 273 1.0 10.0 0.00 0.01 0.00 35 1019.6
20260510204011 59 271 4.0 1.0 0.00 0.01 0.00 35 1019.3
20260510203516 59 323 5.0 16.0 0.00 0.01 0.00 37 1019.7
20260510203511 59 252 4.0 2.0 0.00 0.01 0.00 37 1019.4
20260510203034 58 299 7.0 16.0 0.00 0.01 0.00 37 1019.7
20260510203012 59 297 2.0 2.0 0.00 0.01 0.00 37 1019.4
20260510202516 59 16 3.0 20.0 0.00 0.01 0.00 37 1019.7
20260510202015 59 303 5.0 20.0 0.00 0.01 0.00 34 1019.8
20260510202011 59 315 4.0 2.0 0.00 0.01 0.00 34 1019.4
20260510201532 59 257 5.0 15.0 0.00 0.01 0.00 37 1019.6
20260510201511 60 296 8.0 1.0 0.00 0.01 0.00 36 1019.3
20260510201019 60 269 5.0 15.0 0.00 0.01 0.00 39 1019.8
20260510200515 60 272 4.0 18.0 0.00 0.01 0.00 32 1019.6
20260510200511 61 291 10.0 2.0 0.00 0.01 0.00 30 1019.4
20260510200037 60 285 8.0 18.0 0.00 0.01 0.00 30 1019.7
20260510195516 60 350 5.0 18.0 0.00 0.01 0.00 32 1019.7
20260510195511 61 350 2.0 2.0 0.00 0.01 0.00 31 1019.3
20260510195021 60 297 9.0 18.0 0.00 0.01 0.00 31 1019.7
20260510195011 61 355 10.0 2.0 0.00 0.01 0.00 30 1019.3
20260510194539 60 303 6.0 17.0 0.00 0.01 0.00 31 1019.7
20260510194019 60 342 3.0 17.0 0.00 0.01 0.00 34 1019.7
20260510194011 61 338 10.0 2.0 0.00 0.01 0.00 34 1019.4
20260510193518 61 285 7.0 16.0 0.00 0.01 0.00 30 1019.8
20260510193511 61 285 14.0 2.0 0.00 0.01 0.00 30 1019.5
20260510193036 61 268 5.0 17.0 0.00 0.01 0.00 33 1019.7
20260510193011 61 267 7.0 2.0 0.00 0.01 0.00 33 1019.4
20260510192518 60 340 6.0 17.0 0.00 0.01 0.00 35 1019.7
20260510192018 60 330 6.0 15.0 0.00 0.01 0.00 32 1019.8
20260510192011 61 340 6.0 2.0 0.00 0.01 0.00 31 1019.4
20260510191539 61 174 5.0 18.0 0.00 0.01 0.00 33 1019.6
20260510191511 61 28 4.0 1.0 0.00 0.01 0.00 33 1019.4
20260510191059 0 0.0 0.0 0.31 0.00 0.00
20260510191018 61 267 7.0 18.0 0.00 0.01 0.00 33 1019.7
20260510190517 61 218 5.0 21.0 0.00 0.01 0.00 32 1019.6
20260510190046 60 229 9.0 21.0 0.00 0.01 0.00 31 1019.5
20260510185517 60 334 5.0 15.0 0.00 0.01 0.00 35 1019.6
20260510185018 59 305 6.0 15.0 0.00 0.01 0.00 34 1019.6
20260510184537 59 342 6.0 15.0 0.00 0.01 0.00 35 1019.6
20260510184018 59 266 5.0 15.0 0.00 0.01 0.00 37 1019.6
20260510183518 58 284 5.0 15.0 0.00 0.01 0.00 47 1019.7
20260510183032 59 355 6.0 15.0 0.00 0.01 0.00 34 1019.7
20260510182519 59 350 4.0 18.0 0.00 0.01 0.00 36 1019.8
20260510182022 60 315 4.0 18.0 0.00 0.01 0.00 35 1020.0
20260510181551 60 299 5.0 15.0 0.00 0.01 0.00 35 1019.9
20260510181019 60 284 5.0 22.0 0.00 0.01 0.00 41 1019.7
20260510180518 60 276 7.0 22.0 0.00 0.01 0.00 35 1019.8
20260510180046 59 9 7.0 22.0 0.00 0.01 0.00 38 1019.8
20260510175516 59 36 6.0 17.0 0.00 0.01 0.00 38 1019.9
20260510175018 60 337 8.0 17.0 0.00 0.01 0.00 39 1020.0
20260510174534 60 296 7.0 17.0 0.00 0.01 0.00 38 1019.9
20260510174016 59 229 3.0 15.0 0.00 0.01 0.00 44 1019.9
20260510173516 58 278 6.0 15.0 0.00 0.01 0.00 42 1019.8
20260510173032 59 326 5.0 17.0 0.00 0.01 0.00 39 1019.8
20260510172516 59 14 6.0 17.0 0.00 0.01 0.00 40 1019.8
20260510172018 58 273 8.0 20.0 0.00 0.01 0.00 43 1019.9
20260510171549 58 302 6.0 20.0 0.00 0.01 0.00 40 1019.9
20260510171019 58 280 3.0 12.0 0.00 0.01 0.00 40 1020.0
20260510170519 58 321 4.0 12.0 0.00 0.01 0.00 46 1020.0
20260510170034 58 28 3.0 12.0 0.00 0.01 0.00 45 1019.9
20260510165518 58 271 6.0 12.0 0.00 0.01 0.00 48 1020.0
20260510165022 57 319 5.0 11.0 0.00 0.01 0.00 48 1020.0
20260510164535 57 280 4.0 11.0 0.00 0.01 0.00 44 1020.0
20260510164017 57 282 4.0 11.0 0.00 0.01 0.00 46 1020.0
20260510163518 57 277 2.0 11.0 0.00 0.01 0.00 50 1020.0
20260510163032 57 355 2.0 10.0 0.00 0.01 0.00 48 1020.0
20260510162519 57 274 5.0 10.0 0.00 0.01 0.00 47 1020.0
20260510162020 57 0 1.0 9.0 0.00 0.01 0.00 49 1019.9
20260510161533 57 338 3.0 12.0 0.00 0.01 0.00 47 1019.9
20260510161018 57 261 2.0 13.0 0.00 0.01 0.00 48 1019.9
20260510160519 56 340 5.0 13.0 0.00 0.01 0.00 49 1019.9
20260510160042 56 355 4.0 13.0 0.00 0.01 0.00 49 1019.9
20260510155518 55 13 2.0 13.0 0.00 0.01 0.00 51 1019.9
20260510155015 55 350 6.0 13.0 0.00 0.01 0.00 50 1019.9
20260510154555 55 33 2.0 13.0 0.00 0.01 0.00 51 1019.7
20260510154019 55 18 7.0 13.0 0.00 0.01 0.00 50 1019.8
20260510153518 55 7 5.0 13.0 0.00 0.01 0.00 49 1019.8
20260510153046 55 359 4.0 11.0 0.00 0.01 0.00 50 1019.7
20260510152518 54 288 3.0 11.0 0.00 0.01 0.00 55 1019.6
20260510152019 54 329 3.0 7.0 0.00 0.01 0.00 53 1019.8
20260510151534 54 13 1.0 9.0 0.00 0.01 0.00 54 1019.7
20260510151018 54 0 3.0 9.0 0.00 0.01 0.00 57 1019.6
20260510150529 54 42 1.0 6.0 0.00 0.01 0.00 58 1019.6
20260510150032 54 46 2.0 6.0 0.00 0.01 0.00 57 1019.6
20260510145517 54 41 3.0 5.0 0.00 0.02 0.00 61 1019.7
20260510145018 53 44 3.0 7.0 0.00 0.02 0.00 61 1019.6
20260510144546 52 64 2.0 8.0 0.00 0.02 0.00 60 1019.6
20260510144017 52 342 3.0 11.0 0.00 0.02 0.00 58 1019.6
20260510143521 52 34 2.0 11.0 0.00 0.02 0.00 60 1019.5
20260510143034 52 55 4.0 10.0 0.00 0.02 0.00 60 1019.5
20260510142527 52 0 0.0 9.0 0.00 0.02 0.00 63 1019.6
20260510142017 52 0 3.0 9.0 0.00 0.02 0.00 62 1019.5
20260510141541 51 350 2.0 8.0 0.00 0.02 0.00 64 1019.5
20260510141018 51 26 3.0 8.0 0.00 0.02 0.00 60 1019.4
20260510140517 51 11 2.0 6.0 0.00 0.02 0.00 57 1019.3
20260510140032 51 49 2.0 6.0 0.00 0.02 0.00 59 1019.4
20260510135518 50 10 2.0 6.0 0.00 0.02 0.00 61 1019.4
20260510135018 50 41 2.0 6.0 0.00 0.02 0.00 60 1019.3
20260510134532 50 27 0.0 4.0 0.00 0.02 0.00 60 1019.4
20260510134021 49 0 0.0 4.0 0.00 0.02 0.00 61 1019.4
20260510133517 49 0 0.0 0.0 0.00 0.02 0.00 63 1019.4
20260510133035 48 0 0.0 0.0 0.00 0.02 0.00 65 1019.3
20260510132517 48 0 0.0 3.0 0.00 0.02 0.00 65 1019.4
20260510132018 47 0 0.0 3.0 0.00 0.02 0.00 67 1019.3
20260510131537 46 0 0.0 3.0 0.00 0.02 0.00 68 1019.3
20260510131017 46 350 0.0 3.0 0.00 0.02 0.00 68 1019.2
20260510130518 45 0 0.0 3.0 0.00 0.02 0.00 71 1019.3
20260510130037 45 0 0.0 1.0 0.00 0.02 0.00 73 1019.2
20260510125517 44 0 0.0 0.0 0.00 0.02 0.00 74 1019.1
20260510125021 44 0 0.0 0.0 0.00 0.02 0.00 74 1019.1
20260510124539 43 0 0.0 0.0 0.00 0.02 0.00 76 1019.0
20260510124020 43 0 0.0 0.0 0.00 0.02 0.00 76 1019.1
20260510123520 42 0 0.0 0.0 0.00 0.02 0.00 76 1019.0
20260510123034 42 0 0.0 0.0 0.00 0.02 0.00 80 1019.0
20260510122518 41 0 0.0 0.0 0.00 0.02 0.00 81 1018.8
20260510122018 41 0 0.0 0.0 0.00 0.02 0.00 80 1018.9
20260510121535 40 0 0.0 0.0 0.00 0.02 0.00 80 1018.8
20260510121018 40 0 0.0 0.0 0.00 0.02 0.00 80 1018.7
20260510120521 40 0 0.0 0.0 0.00 0.02 0.00 80 1018.7
20260510120037 39 0 0.0 0.0 0.00 0.02 0.00 80 1018.5
20260510115517 39 0 0.0 0.0 0.00 0.02 0.00 79 1018.5
20260510115020 39 0 0.0 0.0 0.00 0.02 0.00 79 1018.3
20260510114538 38 0 0.0 0.0 0.00 0.02 0.00 80 1018.2
20260510114016 38 0 0.0 0.0 0.00 0.02 0.00 80 1018.2
20260510113519 38 0 0.0 0.0 0.00 0.02 0.00 80 1018.2
20260510113035 38 0 0.0 0.0 0.00 0.02 0.00 80 1018.1
20260510112522 38 0 0.0 0.0 0.00 0.02 0.00 80 1018.1
20260510112019 38 0 0.0 0.0 0.00 0.02 0.00 80 1018.1
20260510111533 37 0 0.0 0.0 0.00 0.02 0.00 81 1018.1
20260510111021 37 0 0.0 0.0 0.00 0.02 0.00 80 1017.9
20260510110518 37 0 0.0 0.0 0.00 0.02 0.00 81 1017.9
20260510110034 37 0 0.0 0.0 0.00 0.02 0.00 81 1017.8
20260510105518 37 0 0.0 0.0 0.00 0.02 0.00 81 1017.7
20260510105018 37 0 0.0 0.0 0.00 0.02 0.00 81 1017.7
20260510104548 37 0 0.0 0.0 0.00 0.02 0.00 80 1017.6
20260510104019 36 0 0.0 0.0 0.00 0.02 0.00 80 1017.7
20260510103517 36 0 0.0 0.0 0.00 0.02 0.00 80 1017.5
20260510103039 36 0 0.0 0.0 0.00 0.02 0.00 79 1017.5
20260510102518 36 0 0.0 0.0 0.00 0.02 0.00 79 1017.5
20260510102019 36 0 0.0 0.0 0.00 0.02 0.00 78 1017.5
20260510101539 36 0 0.0 2.0 0.00 0.02 0.00 78 1017.4
20260510101023 36 0 0.0 3.0 0.00 0.02 0.00 78 1017.2
20260510100519 37 0 0.0 3.0 0.00 0.02 0.00 78 1017.2
20260510100032 37 0 0.0 0.0 0.00 0.02 0.00 77 1017.1
20260510095522 37 0 0.0 2.0 0.00 0.02 0.00 77 1017.0
20260510095020 37 0 0.0 3.0 0.00 0.02 0.00 78 1017.0
20260510094533 37 0 1.0 3.0 0.00 0.02 0.00 78 1016.8
20260510094017 37 288 1.0 4.0 0.00 0.02 0.00 78 1016.7
20260510093519 37 288 2.0 4.0 0.00 0.02 0.00 79 1016.6
20260510093032 37 288 2.0 4.0 0.00 0.02 0.00 79 1016.5
20260510092518 36 301 1.0 3.0 0.00 0.02 0.00 78 1016.6
20260510092018 36 0 0.0 3.0 0.00 0.02 0.00 79 1016.6
20260510091539 36 0 0.0 3.0 0.00 0.02 0.00 79 1016.6
20260510091017 36 301 1.0 4.0 0.00 0.02 0.00 78 1016.5
20260510090517 36 301 2.0 4.0 0.00 0.02 0.00 78 1016.4
20260510090036 36 303 0.0 0.0 0.00 0.02 0.00 77 1016.3
20260510085516 36 0 0.0 0.0 0.00 0.02 0.00 77 1016.2
20260510085017 36 0 0.0 0.0 0.00 0.02 0.00 76 1016.2
20260510084545 36 0 0.0 0.0 0.00 0.02 0.00 76 1016.1
20260510084017 37 0 0.0 0.0 0.00 0.02 0.00 75 1016.1
20260510083517 37 0 0.0 0.0 0.00 0.02 0.00 75 1016.1
20260510083038 37 0 0.0 0.0 0.00 0.02 0.00 74 1016.0
20260510082517 37 0 0.0 0.0 0.00 0.02 0.00 74 1016.0
20260510082017 37 0 0.0 0.0 0.00 0.02 0.00 74 1016.0
20260510081537 37 0 0.0 0.0 0.00 0.02 0.00 73 1015.9
20260510081018 37 0 0.0 0.0 0.00 0.02 0.00 73 1015.9
20260510080519 38 0 0.0 0.0 0.00 0.02 0.00 72 1015.9
20260510080037 38 0 0.0 0.0 0.00 0.02 0.00 72 1015.8
20260510075603 38 0 0.0 3.0 0.00 0.02 0.00 72 1015.7
20260510075518 38 0 0.0 3.0 0.00 0.02 0.00 72 1015.7
20260510075019 38 0 0.0 3.0 0.00 0.02 0.00 71 1015.7
20260510074537 38 303 1.0 3.0 0.00 0.02 0.00 71 1015.7
20260510074017 39 0 1.0 3.0 0.00 0.02 0.00 70 1015.6
20260510073517 39 303 1.0 3.0 0.00 0.02 0.00 70 1015.7
20260510073046 39 303 0.0 3.0 0.00 0.02 0.00 70 1015.5
20260510072517 39 0 0.0 0.0 0.00 0.02 0.00 69 1015.6
20260510072016 39 0 0.0 0.0 0.00 0.02 0.00 69 1015.6
20260510071534 40 0 0.0 0.0 0.00 0.02 0.00 68 1015.6
20260510071016 40 0 0.0 0.0 0.00 0.02 0.00 67 1015.5
20260510070516 40 0 0.0 0.0 0.00 0.02 0.00 67 1015.7
20260510070039 41 0 0.0 0.0 0.00 0.02 0.00 65 1015.6
20260510065518 41 0 0.0 0.0 0.00 0.02 0.00 65 1015.5
20260510065021 41 0 0.0 0.0 0.00 0.02 0.00 65 1015.5
20260510064538 42 0 0.0 0.0 0.00 0.02 0.00 63 1015.5
20260510064017 42 0 0.0 0.0 0.00 0.02 0.00 62 1015.5
20260510063519 42 0 0.0 0.0 0.00 0.02 0.00 64 1015.5
20260510063035 42 0 0.0 0.0 0.00 0.02 0.00 63 1015.5
20260510062517 43 0 0.0 0.0 0.00 0.02 0.00 62 1015.5
20260510062017 43 0 0.0 0.0 0.00 0.02 0.00 60 1015.4
20260510061536 43 0 0.0 0.0 0.00 0.02 0.00 59 1015.4
20260510061017 44 0 0.0 0.0 0.00 0.02 0.00 58 1015.3
20260510060519 44 0 0.0 0.0 0.00 0.02 0.00 58 1015.4
20260510060041 44 0 0.0 0.0 0.00 0.02 0.00 57 1015.3
20260510055519 44 0 0.0 0.0 0.00 0.02 0.00 56 1015.3
20260510055018 45 0 0.0 0.0 0.00 0.02 0.00 56 1015.3
20260510054534 45 0 0.0 0.0 0.00 0.02 0.00 55 1015.3
20260510054018 45 0 0.0 0.0 0.00 0.02 0.00 54 1015.2
20260510053517 46 0 0.0 0.0 0.00 0.02 0.00 54 1015.1
20260510053032 46 0 0.0 0.0 0.00 0.02 0.00 53 1015.1
20260510052518 46 0 0.0 0.0 0.00 0.02 0.00 53 1015.0
20260510052019 47 0 0.0 0.0 0.00 0.02 0.00 52 1015.0
20260510051532 47 0 0.0 0.0 0.00 0.02 0.00 50 1014.9
20260510051018 47 0 0.0 0.0 0.00 0.02 0.00 48 1014.9
20260510050519 48 0 0.0 0.0 0.00 0.02 0.00 48 1014.9
20260510050035 48 0 0.0 0.0 0.00 0.02 0.00 49 1014.9
20260510045518 48 0 0.0 0.0 0.00 0.02 0.02 48 1014.9
20260510045018 49 0 0.0 2.0 0.00 0.02 0.02 47 1014.8
20260510044536 49 0 0.0 4.0 0.00 0.02 0.02 47 1014.7
20260510044017 49 0 1.0 5.0 0.00 0.02 0.02 46 1014.8
20260510043520 49 301 2.0 7.0 0.00 0.02 0.02 46 1014.8
20260510043034 49 302 2.0 7.0 0.00 0.02 0.02 46 1014.7
20260510042516 49 307 1.0 6.0 0.00 0.02 0.02 45 1014.7
20260510042016 49 306 2.0 7.0 0.00 0.02 0.02 45 1014.7
20260510041536 49 294 2.0 7.0 0.00 0.02 0.02 45 1014.6
20260510041020 50 294 1.0 7.0 0.00 0.02 0.02 44 1014.6
20260510040519 50 0 0.0 5.0 0.00 0.02 0.02 43 1014.6
20260510040032 50 309 0.0 5.0 0.00 0.02 0.02 44 1014.6
20260510035517 50 314 1.0 5.0 0.00 0.02 0.02 44 1014.5
20260510035018 50 304 1.0 5.0 0.00 0.02 0.02 43 1014.4
20260510034535 50 0 0.0 7.0 0.00 0.02 0.02 43 1014.3
20260510034019 50 0 2.0 9.0 0.00 0.02 0.02 43 1014.3
20260510033521 50 288 1.0 9.0 0.00 0.02 0.02 43 1014.2
20260510033037 50 278 4.0 9.0 0.00 0.02 0.02 43 1014.1
20260510032520 50 303 1.0 9.0 0.00 0.02 0.02 43 1014.1
20260510032017 50 296 2.0 9.0 0.00 0.02 0.02 43 1014.0
20260510031537 50 313 2.0 4.0 0.00 0.02 0.02 43 1013.9
20260510031017 50 0 0.0 4.0 0.00 0.02 0.02 43 1013.9
20260510030516 50 0 2.0 6.0 0.00 0.02 0.02 42 1013.7
20260510030036 51 315 2.0 7.0 0.00 0.02 0.02 43 1013.6
20260510025518 51 297 2.0 7.0 0.00 0.02 0.02 43 1013.6
20260510025017 51 315 1.0 5.0 0.00 0.02 0.02 43 1013.4
20260510024536 51 309 2.0 5.0 0.00 0.02 0.02 43 1013.3
20260510024018 52 0 1.0 5.0 0.00 0.02 0.02 43 1013.2
20260510023517 52 311 2.0 5.0 0.00 0.02 0.02 42 1013.1
20260510023041 52 332 2.0 4.0 0.00 0.02 0.02 41 1013.0
20260510022517 52 339 1.0 3.0 0.00 0.02 0.02 40 1013.0
20260510022020 53 339 1.0 3.0 0.00 0.02 0.02 40 1012.9
20260510021537 53 339 0.0 3.0 0.00 0.02 0.02 39 1012.8
20260510021017 53 340 1.0 3.0 0.00 0.02 0.02 38 1012.7
20260510020517 53 0 0.0 3.0 0.00 0.02 0.02 38 1012.6
20260510020034 54 340 1.0 3.0 0.00 0.02 0.02 38 1012.4
20260510015520 54 0 0.0 3.0 0.00 0.02 0.02 37 1012.3
20260510015016 54 341 0.0 3.0 0.00 0.02 0.02 37 1012.2
20260510014533 55 342 1.0 3.0 0.00 0.02 0.02 36 1012.2
20260510014017 55 0 0.0 5.0 0.00 0.02 0.02 35 1012.1
20260510013517 55 0 0.0 5.0 0.00 0.02 0.02 35 1012.0
20260510013032 55 297 0.0 4.0 0.00 0.02 0.02 34 1011.9
20260510012518 56 0 0.0 5.0 0.00 0.02 0.02 34 1011.8
20260510012018 56 302 1.0 6.0 0.00 0.02 0.02 34 1011.7
20260510011537 56 299 1.0 9.0 0.00 0.02 0.02 32 1011.6
20260510011017 56 310 2.0 9.0 0.00 0.02 0.02 32 1011.5
20260510010518 57 288 2.0 12.0 0.00 0.02 0.02 32 1011.4
20260510010034 57 326 4.0 12.0 0.00 0.02 0.02 31 1011.4
20260510005518 57 330 3.0 12.0 0.00 0.02 0.02 32 1011.3
20260510005020 57 9 6.0 12.0 0.00 0.02 0.02 30 1011.2
20260510004535 58 327 2.0 11.0 0.00 0.02 0.02 30 1011.2
20260510004017 58 326 2.0 13.0 0.00 0.02 0.02 31 1011.2
20260510003517 58 1 3.0 13.0 0.00 0.02 0.02 31 1011.1
20260510003032 58 321 4.0 9.0 0.00 0.02 0.02 32 1011.1
20260510002516 58 303 2.0 11.0 0.00 0.02 0.02 32 1011.1
20260510002019 58 355 3.0 11.0 0.00 0.02 0.02 31 1011.0
20260510001538 58 269 4.0 11.0 0.00 0.02 0.02 31 1011.0
20260510001017 58 272 2.0 12.0 0.00 0.02 0.02 32 1010.9
20260510000519 58 3 5.0 12.0 0.00 0.02 0.02 30 1010.9
20260510000035 58 315 3.0 11.0 0.00 0.02 0.02 33 1010.8
20260509235516 58 6 4.0 12.0 0.00 0.02 0.02 31 1010.9
20260509235016 58 286 4.0 12.0 0.00 0.02 0.02 32 1010.8
20260509234538 59 340 4.0 12.0 0.00 0.02 0.02 34 1010.8
20260509234020 59 326 4.0 11.0 0.00 0.02 0.02 30 1010.7
20260509233517 59 244 4.0 12.0 0.00 0.02 0.02 31 1010.7
20260509233036 59 305 4.0 12.0 0.00 0.02 0.02 30 1010.6
20260509232518 60 15 4.0 20.0 0.00 0.02 0.02 29 1010.6
20260509232018 60 342 6.0 20.0 0.00 0.02 0.02 31 1010.4
20260509231534 60 313 7.0 20.0 0.00 0.02 0.02 30 1010.4
20260509231016 60 286 5.0 15.0 0.00 0.02 0.02 30 1010.1
20260509230517 60 335 5.0 15.0 0.00 0.02 0.02 31 1010.2
20260509230035 60 316 6.0 15.0 0.00 0.02 0.02 29 1010.1
20260509225517 60 284 7.0 16.0 0.00 0.02 0.02 30 1010.2
20260509225016 61 308 6.0 16.0 0.00 0.02 0.02 30 1010.1
20260509224531 61 16 6.0 14.0 0.00 0.02 0.02 31 1010.0
20260509224016 60 36 2.0 14.0 0.00 0.02 0.02 33 1010.0
20260509223519 60 36 3.0 16.0 0.00 0.02 0.02 30 1009.9
20260509223039 61 350 7.0 16.0 0.00 0.02 0.02 29 1009.8
20260509222516 61 314 5.0 13.0 0.00 0.02 0.02 30 1009.9
20260509222016 61 278 7.0 17.0 0.00 0.02 0.02 29 1009.8
20260509221536 61 305 9.0 17.0 0.00 0.02 0.02 29 1009.8
20260509221017 61 255 7.0 17.0 0.00 0.02 0.02 30 1009.7
20260509220517 61 350 5.0 15.0 0.00 0.02 0.02 31 1009.6
20260509220038 61 326 6.0 19.0 0.00 0.02 0.02 30 1009.7
20260509215520 61 281 7.0 19.0 0.00 0.02 0.02 28 1009.5
20260509215017 61 315 6.0 17.0 0.00 0.02 0.02 29 1009.6
20260509214539 61 302 6.0 16.0 0.00 0.02 0.02 29 1009.5